Date String (YYYY-MM-DD hh:mm:ss) UTC,Instrument flags,Ambient pressure (hPa),Sample flow (lpm),Bypass flow (lpm),Sample temperature (°C),Ambient temperature (°C),ASC tube jacket temperature (°C),LED temperature (°C),Box temperature (°C),Sample RH (%),Span deviation,Mass concentration (μg/m³),Mass concentration (μg/m³),Mass concentration (μg/m³)
DateTimeUTC,F1_M11,P_M11,Q1_M11,Q2_M11,T1_M11,T2_M11,T3_M11,T4_M11,T5_M11,U1_M11,ZSPAN_M11,X0_M11,X2_M11,X1_M11
2022-04-25 03:00:00,,0831.7,5.00,0.00,23.2,22.4,00.0,32.3,24.9,16.8,0000.0,0004.42,0001.55,0001.06
2022-04-25 03:01:00,,0831.7,5.00,0.00,23.2,22.4,00.0,32.3,24.9,16.9,0000.0,0004.33,0001.52,0001.06
2022-04-25 03:02:00,,0831.7,5.00,0.00,23.2,22.4,00.0,32.3,25.0,17.0,0000.0,0004.41,0001.47,0001.07
2022-04-25 03:03:00,,0831.7,5.00,0.00,23.2,22.4,00.0,32.3,25.0,17.1,0000.0,0004.59,0001.44,0001.07
2022-04-25 03:04:00,,0831.7,5.01,0.00,23.2,22.4,00.0,32.3,25.0,17.2,0000.0,0005.42,0001.46,0001.08
2022-04-25 03:05:00,,0831.7,5.00,0.00,23.2,22.4,00.0,32.3,24.9,17.2,0000.0,0005.27,0001.44,0001.09
2022-04-25 03:06:00,,0831.8,5.00,0.00,23.2,22.4,00.0,32.3,24.9,17.3,0000.0,0005.35,0001.48,0001.09
2022-04-25 03:07:00,,0831.9,5.00,0.00,23.2,22.3,00.0,32.3,24.9,17.4,0000.0,0005.30,0001.47,0001.09
2022-04-25 03:08:00,,0831.9,5.00,0.00,23.2,22.3,00.0,32.2,24.9,17.4,0000.0,0005.37,0001.51,0001.10
2022-04-25 03:09:00,,0832.0,5.01,0.00,23.2,22.3,00.0,32.2,24.9,17.4,0000.0,0005.30,0001.51,0001.09
2022-04-25 03:10:00,,0832.0,4.99,0.00,23.2,22.3,00.0,32.2,24.9,17.4,0000.0,0004.43,0001.50,0001.08
2022-04-25 03:11:00,,0832.0,5.00,0.00,23.1,22.3,00.0,32.2,24.9,17.4,0000.0,0004.00,0001.48,0001.08
2022-04-25 03:12:00,,0832.1,5.00,0.00,23.1,22.3,00.0,32.2,24.9,17.4,0000.0,0004.04,0001.50,0001.09
2022-04-25 03:13:00,,0832.1,5.01,0.00,23.1,22.4,00.0,32.2,24.9,17.5,0000.0,0003.88,0001.51,0001.08
2022-04-25 03:14:00,,0832.1,5.00,0.00,23.1,22.4,00.0,32.2,24.9,17.5,0000.0,0004.74,0001.57,0001.09
2022-04-25 03:15:00,,0832.1,5.00,0.00,23.1,22.3,00.0,32.2,24.9,17.6,0000.0,0003.83,0001.56,0001.09
2022-04-25 03:16:00,,0832.1,5.01,0.00,23.1,22.3,00.0,32.2,24.9,17.6,0000.0,0003.86,0001.58,0001.09
2022-04-25 03:17:00,,0832.1,5.01,0.00,23.1,22.3,00.0,32.2,24.9,17.6,0000.0,0003.71,0001.53,0001.09
2022-04-25 03:18:00,,0832.1,5.00,0.00,23.1,22.3,00.0,32.2,24.9,17.6,0000.0,0003.73,0001.56,0001.12
2022-04-25 03:19:00,,0832.1,4.99,0.00,23.1,22.3,00.0,32.2,24.9,17.7,0000.0,0003.70,0001.55,0001.13
2022-04-25 03:20:00,,0832.2,5.00,0.00,23.1,22.4,00.0,32.2,24.9,17.8,0000.0,0003.64,0001.55,0001.14
2022-04-25 03:21:00,,0832.1,4.99,0.00,23.1,22.4,00.0,32.2,24.9,17.8,0000.0,0003.67,0001.58,0001.15
2022-04-25 03:22:00,,0832.1,4.99,0.00,23.1,22.4,00.0,32.2,24.9,17.8,0000.0,0003.62,0001.57,0001.16
2022-04-25 03:23:00,,0832.1,5.00,0.00,23.1,22.4,00.0,32.2,24.9,17.8,0000.0,0003.63,0001.57,0001.16
2022-04-25 03:24:00,,0832.1,5.00,0.00,23.1,22.4,00.0,32.1,24.9,17.9,0000.0,0003.76,0001.62,0001.17
2022-04-25 03:25:00,,0832.1,5.00,0.00,23.1,22.4,00.0,32.1,24.9,17.9,0000.0,0002.62,0001.58,0001.17
2022-04-25 03:26:00,,0832.3,5.00,0.00,23.1,22.4,00.0,32.1,24.9,18.0,0000.0,0002.39,0001.59,0001.17
2022-04-25 03:27:00,,0832.2,5.00,0.00,23.1,22.3,00.0,32.1,24.9,18.0,0000.0,0002.35,0001.58,0001.18
2022-04-25 03:28:00,,0832.3,5.01,0.00,23.1,22.3,00.0,32.1,24.9,18.0,0000.0,0002.44,0001.62,0001.20
2022-04-25 03:29:00,,0832.3,5.00,0.00,23.1,22.3,00.0,32.1,24.9,17.9,0000.0,0002.45,0001.63,0001.19
2022-04-25 03:30:00,,0832.4,4.99,0.00,23.1,22.4,00.0,32.1,24.9,17.9,0000.0,0002.48,0001.64,0001.20
2022-04-25 03:31:00,,0832.4,5.00,0.00,23.1,22.4,00.0,32.1,24.9,18.0,0000.0,0002.53,0001.64,0001.19
2022-04-25 03:32:00,,0832.4,5.00,0.00,23.1,22.4,00.0,32.1,24.9,18.0,0000.0,0002.54,0001.62,0001.19
2022-04-25 03:33:00,,0832.4,5.01,0.00,23.1,22.4,00.0,32.1,25.0,18.0,0000.0,0002.71,0001.67,0001.20
2022-04-25 03:34:00,,0832.4,5.00,0.00,23.2,22.4,00.0,32.1,25.0,18.0,0000.0,0002.73,0001.69,0001.22
2022-04-25 03:35:00,,0832.4,5.00,0.00,23.2,22.4,00.0,32.1,25.0,17.9,0000.0,0002.64,0001.68,0001.24
2022-04-25 03:36:00,,0832.4,5.00,0.00,23.2,22.4,00.0,32.1,25.0,17.9,0000.0,0002.67,0001.71,0001.26
2022-04-25 03:37:00,,0832.4,5.00,0.00,23.2,22.4,00.0,32.1,25.0,17.9,0000.0,0002.61,0001.70,0001.27
2022-04-25 03:38:00,,0832.4,5.00,0.00,23.2,22.4,00.0,32.1,25.0,17.8,0000.0,0002.94,0001.75,0001.29
2022-04-25 03:39:00,,0832.4,5.00,0.00,23.2,22.4,00.0,32.1,25.0,17.8,0000.0,0003.12,0001.77,0001.30
2022-04-25 03:40:00,,0832.4,4.99,0.00,23.2,22.4,00.0,32.1,25.0,17.7,0000.0,0003.18,0001.81,0001.32
2022-04-25 03:41:00,,0832.5,5.00,0.00,23.2,22.4,00.0,32.1,25.0,17.5,0000.0,0003.19,0001.83,0001.34
2022-04-25 03:42:00,,0832.5,5.00,0.00,23.2,22.4,00.0,32.1,25.0,17.5,0000.0,0003.14,0001.83,0001.36
2022-04-25 03:43:00,,0832.5,5.01,0.00,23.2,22.4,00.0,32.1,25.0,17.5,0000.0,0003.12,0001.84,0001.39
2022-04-25 03:44:00,,0832.4,5.01,0.00,23.2,22.4,00.0,32.1,25.0,17.6,0000.0,0003.05,0001.85,0001.40
2022-04-25 03:45:00,,0832.5,5.01,0.00,23.2,22.4,00.0,32.1,25.0,17.6,0000.0,0003.07,0001.85,0001.41
2022-04-25 03:46:00,,0832.5,5.01,0.00,23.2,22.4,00.0,32.1,25.0,17.8,0000.0,0003.15,0001.87,0001.42
2022-04-25 03:47:00,,0832.5,5.00,0.00,23.2,22.4,00.0,32.1,25.0,17.8,0000.0,0003.16,0001.87,0001.43
2022-04-25 03:48:00,,0832.5,5.00,0.00,23.2,22.4,00.0,32.1,25.0,17.8,0000.0,0003.18,0001.89,0001.44
2022-04-25 03:49:00,,0832.5,4.99,0.00,23.2,22.4,00.0,32.1,25.0,17.8,0000.0,0002.99,0001.87,0001.44
2022-04-25 03:50:00,,0832.6,5.00,0.00,23.2,22.4,00.0,32.1,25.0,17.8,0000.0,0003.01,0001.89,0001.44
2022-04-25 03:51:00,,0832.6,5.00,0.00,23.2,22.4,00.0,32.1,25.0,17.8,0000.0,0002.88,0001.83,0001.43
2022-04-25 03:52:00,,0832.6,5.00,0.00,23.2,22.4,00.0,32.1,25.0,17.9,0000.0,0002.90,0001.83,0001.42
2022-04-25 03:53:00,,0832.6,4.99,0.00,23.2,22.4,00.0,32.2,25.0,17.9,0000.0,0003.43,0001.89,0001.43
2022-04-25 03:54:00,,0832.6,5.00,0.00,23.2,22.4,00.0,32.2,25.0,17.9,0000.0,0003.74,0001.92,0001.43
2022-04-25 03:55:00,,0832.6,5.00,0.00,23.2,22.4,00.0,32.2,25.0,17.9,0000.0,0003.65,0001.88,0001.43
2022-04-25 03:56:00,,0832.7,5.00,0.00,23.3,22.4,00.0,32.2,25.0,17.8,0000.0,0003.66,0001.89,0001.42
2022-04-25 03:57:00,,0832.6,5.00,0.00,23.3,22.4,00.0,32.2,25.1,17.7,0000.0,0003.66,0001.91,0001.42
2022-04-25 03:58:00,,0832.6,5.01,0.00,23.3,22.4,00.0,32.2,25.1,17.7,0000.0,0003.86,0001.94,0001.43
2022-04-25 03:59:00,,0832.6,5.00,0.00,23.3,22.4,00.0,32.2,25.1,17.7,0000.0,0004.07,0001.94,0001.44
